• En España
  • Lista de países
  • Para 7 días
  • Temperatura del agua
  • Mapa Satelital
  • El tiempo en el mapa
  • Informadores
  • user-avatar
    Iniciar sesión

    Tiempo cada hora Yevlakh

    Hoy, 24 Agosto, Jueves

    Tiempo Temperatura Precipitaciones Viento Presión Humedad
    00:00 +28°C° 0 mm 1 mps 758 mmHg 33%
    01:00 +28°C° 0 mm 1 mps 758 mmHg 35%
    02:00 +27°C° 0 mm 1 mps 759 mmHg 36%
    03:00 +27°C° 0 mm 1 mps 759 mmHg 40%
    04:00 +27°C° 0 mm 1 mps 760 mmHg 40%
    05:00 +27°C° 0 mm 1 mps 760 mmHg 40%
    06:00 +27°C° 0 mm 1 mps 760 mmHg 40%
    07:00 +30°C° 0 mm 2 mps 760 mmHg 33%
    08:00 +32°C° 0 mm 2 mps 760 mmHg 27%
    09:00 +35°C° 0 mm 3 mps 760 mmHg 20%
    10:00 +37°C° 0 mm 4 mps 760 mmHg 18%
    11:00 +39°C° 0 mm 5 mps 760 mmHg 17%
    12:00 +40°C° 0 mm 6 mps 759 mmHg 15%
    13:00 +41°C° 0 mm 6 mps 759 mmHg 14%
    14:00 +41°C° 0 mm 6 mps 759 mmHg 14%
    15:00 +42°C° 0 mm 6 mps 759 mmHg 13%
    16:00 +40°C° 0 mm 6 mps 759 mmHg 15%
    17:00 +39°C° 0 mm 6 mps 759 mmHg 17%
    18:00 +38°C° 0 mm 6 mps 759 mmHg 19%
    19:00 +35°C° 0 mm 5 mps 760 mmHg 21%
    20:00 +33°C° 0 mm 4 mps 760 mmHg 23%
    21:00 +30°C° 0 mm 4 mps 761 mmHg 26%
    22:00 +29°C° 0 mm 3 mps 761 mmHg 27%
    23:00 +28°C° 0 mm 2 mps 761 mmHg 29%

    Mañana, 25 Agosto, Viernes

    Tiempo Temperatura Precipitaciones Viento Presión Humedad
    00:00 +27°C° 0 mm 2 mps 761 mmHg 31%
    01:00 +27°C° 0 mm 2 mps 761 mmHg 32%
    02:00 +26°C° 0 mm 1 mps 761 mmHg 33%
    03:00 +26°C° 0 mm 1 mps 761 mmHg 34%
    04:00 +26°C° 0 mm 1 mps 761 mmHg 34%
    05:00 +26°C° 0 mm 1 mps 761 mmHg 34%
    06:00 +26°C° 0 mm 1 mps 762 mmHg 34%
    07:00 +28°C° 0 mm 1 mps 761 mmHg 29%
    08:00 +31°C° 0 mm 2 mps 761 mmHg 24%
    09:00 +34°C° 0 mm 2 mps 761 mmHg 19%
    10:00 +35°C° 0 mm 2 mps 761 mmHg 16%
    11:00 +37°C° 0 mm 2 mps 760 mmHg 14%
    12:00 +38°C° 0 mm 3 mps 760 mmHg 11%
    13:00 +39°C° 0 mm 3 mps 760 mmHg 10%
    14:00 +41°C° 0 mm 4 mps 759 mmHg 10%
    15:00 +42°C° 0 mm 5 mps 759 mmHg 9%
    16:00 +40°C° 0 mm 5 mps 759 mmHg 10%
    17:00 +39°C° 0 mm 5 mps 759 mmHg 11%
    18:00 +37°C° 0 mm 5 mps 759 mmHg 12%
    19:00 +35°C° 0 mm 5 mps 760 mmHg 16%
    20:00 +33°C° 0 mm 4 mps 760 mmHg 19%
    21:00 +30°C° 0 mm 4 mps 761 mmHg 22%
    22:00 +29°C° 0 mm 4 mps 761 mmHg 26%
    23:00 +28°C° 0 mm 3 mps 761 mmHg 30%

    Pasado mañana, 26 Agosto, Sábado

    Tiempo Temperatura Precipitaciones Viento Presión Humedad
    00:00 +27°C° 0 mm 3 mps 761 mmHg 34%
    01:00 +27°C° 0 mm 2 mps 761 mmHg 34%
    02:00 +26°C° 0 mm 2 mps 761 mmHg 35%
    03:00 +26°C° 0 mm 2 mps 761 mmHg 36%
    04:00 +26°C° 0 mm 1 mps 761 mmHg 35%
    05:00 +26°C° 0 mm 1 mps 761 mmHg 35%
    06:00 +26°C° 0 mm 1 mps 762 mmHg 34%
    07:00 +28°C° 0 mm 1 mps 761 mmHg 30%
    08:00 +31°C° 0 mm 2 mps 761 mmHg 25%
    09:00 +34°C° 0 mm 2 mps 761 mmHg 21%
    10:00 +35°C° 0 mm 2 mps 761 mmHg 19%
    11:00 +36°C° 0 mm 3 mps 760 mmHg 17%
    12:00 +38°C° 0 mm 3 mps 760 mmHg 16%
    13:00 +38°C° 0 mm 4 mps 759 mmHg 15%
    14:00 +40°C° 0 mm 4 mps 759 mmHg 14%
    15:00 +41°C° 0 mm 5 mps 758 mmHg 14%
    16:00 +38°C° 0 mm 4 mps 759 mmHg 15%
    17:00 +37°C° 0 mm 4 mps 759 mmHg 16%
    18:00 +36°C° 0 mm 4 mps 759 mmHg 18%
    19:00 +35°C° 0 mm 4 mps 759 mmHg 21%
    20:00 +33°C° 0 mm 4 mps 760 mmHg 24%
    21:00 +30°C° 0 mm 5 mps 760 mmHg 27%
    22:00 +29°C° 0 mm 4 mps 760 mmHg 29%
    23:00 +28°C° 0 mm 3 mps 760 mmHg 32%

    27 Agosto, Domingo

    Tiempo Temperatura Precipitaciones Viento Presión Humedad
    00:00 +27°C° 0 mm 3 mps 760 mmHg 35%
    01:00 +27°C° 0 mm 2 mps 760 mmHg 36%
    02:00 +26°C° 0 mm 2 mps 760 mmHg 38%
    03:00 +26°C° 0 mm 2 mps 760 mmHg 39%
    04:00 +26°C° 0 mm 1 mps 760 mmHg 39%
    05:00 +26°C° 0 mm 1 mps 760 mmHg 40%
    06:00 +26°C° 0 mm 1 mps 761 mmHg 40%
    07:00 +28°C° 0 mm 1 mps 760 mmHg 36%
    08:00 +30°C° 0 mm 2 mps 760 mmHg 33%
    09:00 +32°C° 0 mm 2 mps 760 mmHg 29%
    10:00 +34°C° 0 mm 2 mps 760 mmHg 26%
    11:00 +36°C° 0 mm 3 mps 759 mmHg 24%
    12:00 +37°C° 0 mm 3 mps 759 mmHg 21%
    13:00 +38°C° 0 mm 4 mps 758 mmHg 20%
    14:00 +38°C° 0 mm 4 mps 758 mmHg 19%
    15:00 +40°C° 0 mm 5 mps 758 mmHg 18%
    16:00 +38°C° 0 mm 4 mps 758 mmHg 19%
    17:00 +37°C° 0 mm 4 mps 758 mmHg 20%
    18:00 +36°C° 0 mm 4 mps 758 mmHg 21%
    19:00 +34°C° 0 mm 4 mps 759 mmHg 25%
    20:00 +32°C° 0 mm 4 mps 759 mmHg 29%
    21:00 +30°C° 0 mm 4 mps 760 mmHg 33%
    22:00 +29°C° 0 mm 4 mps 760 mmHg 36%
    23:00 +28°C° 0 mm 3 mps 760 mmHg 39%

    28 Agosto, Lunes

    Tiempo Temperatura Precipitaciones Viento Presión Humedad
    00:00 +27°C° 0 mm 2 mps 760 mmHg 42%
    01:00 +27°C° 0 mm 2 mps 760 mmHg 43%
    02:00 +26°C° 0 mm 2 mps 760 mmHg 44%
    03:00 +26°C° 0 mm 2 mps 760 mmHg 45%
    04:00 +26°C° 0 mm 1 mps 760 mmHg 45%
    05:00 +26°C° 0 mm 1 mps 760 mmHg 44%
    06:00 +26°C° 0 mm 1 mps 760 mmHg 44%
    07:00 +28°C° 0 mm 1 mps 760 mmHg 39%
    08:00 +30°C° 0 mm 1 mps 760 mmHg 35%
    09:00 +32°C° 0 mm 2 mps 759 mmHg 31%
    10:00 +34°C° 0 mm 2 mps 759 mmHg 28%
    11:00 +35°C° 0 mm 2 mps 758 mmHg 25%
    12:00 +37°C° 0 mm 2 mps 758 mmHg 22%
    13:00 +37°C° 0 mm 3 mps 757 mmHg 21%
    14:00 +38°C° 0 mm 3 mps 757 mmHg 20%
    15:00 +39°C° 0 mm 3 mps 756 mmHg 18%
    16:00 +38°C° 0 mm 3 mps 757 mmHg 19%
    17:00 +37°C° 0 mm 3 mps 757 mmHg 20%
    18:00 +36°C° 0 mm 3 mps 757 mmHg 21%
    19:00 +34°C° 0 mm 3 mps 757 mmHg 24%
    20:00 +33°C° 0 mm 3 mps 758 mmHg 27%
    21:00 +30°C° 0 mm 4 mps 758 mmHg 29%
    22:00 +29°C° 0 mm 3 mps 758 mmHg 33%
    23:00 +28°C° 0 mm 3 mps 758 mmHg 36%

    29 Agosto, Martes

    Tiempo Temperatura Precipitaciones Viento Presión Humedad
    00:00 +27°C° 0 mm 2 mps 758 mmHg 39%
    01:00 +27°C° 0 mm 2 mps 758 mmHg 41%
    02:00 +26°C° 0 mm 2 mps 758 mmHg 42%
    03:00 +26°C° 0 mm 1 mps 758 mmHg 44%
    04:00 +26°C° 0 mm 1 mps 758 mmHg 43%
    05:00 +26°C° 0 mm 1 mps 758 mmHg 43%
    06:00 +26°C° 0 mm 1 mps 758 mmHg 42%
    07:00 +28°C° 0 mm 1 mps 758 mmHg 37%
    08:00 +30°C° 0 mm 2 mps 757 mmHg 33%
    09:00 +32°C° 0 mm 2 mps 757 mmHg 28%
    10:00 +35°C° 0 mm 2 mps 756 mmHg 26%
    11:00 +36°C° 0 mm 2 mps 756 mmHg 23%
    12:00 +37°C° 0 mm 1 mps 755 mmHg 20%
    13:00 +37°C° 0 mm 1 mps 754 mmHg 19%
    14:00 +39°C° 0 mm 2 mps 754 mmHg 19%
    15:00 +39°C° 0 mm 2 mps 753 mmHg 18%
    16:00 +37°C° 0 mm 1 mps 753 mmHg 19%
    17:00 +37°C° 0 mm 1 mps 753 mmHg 21%
    18:00 +36°C° 0 mm 1 mps 753 mmHg 22%
    19:00 +34°C° 0 mm 1 mps 754 mmHg 24%
    20:00 +34°C° 0 mm 2 mps 754 mmHg 26%
    21:00 +31°C° 0 mm 2 mps 754 mmHg 28%
    22:00 +30°C° 0 mm 2 mps 754 mmHg 31%
    23:00 +30°C° 0 mm 2 mps 754 mmHg 34%
    Mostrar más